Regional Weather Roundup
Issued by NWS

Home | Current Version | Previous Version | Graphics & Text | Print | Product List | Glossary On
Versions: 1 2 3 4 5 6 7 8 9 10 11 12 13 14 15 16 17 18 19 20 21 22 23 24 25 26 27 28 29 30 31 32 33 34 35 36 37 38 39 40 41 42 43 44 45 46 47 48 49 50
000
ASUS43 KBIS 240920
RWRND

NORTH DAKOTA REGIONAL WEATHER ROUNDUP
NATIONAL WEATHER SERVICE BISMARCK ND
400 AM CDT FRI OCT 24 2014

NOTE: "FAIR" INDICATES FEW OR NO CLOUDS BELOW 12,000 FEET WITH NO
SIGNIFICANT WEATHER AND/OR OBSTRUCTIONS TO VISIBILITY.


NDZ001>003-009>011-017-241000-
NORTHWEST NORTH DAKOTA

CITY           SKY/WX    TMP DP  RH WIND       PRES   REMARKS
WILLISTON      MOCLDY    43  35  73 S5        29.79S
MINOT          CLEAR     49  33  54 SW10      29.76R
MINOT AFB      PTCLDY    47  35  62 SW8       29.75R
$$

NDZ018>021-031>035-040>046-241000-
SOUTHWEST NORTH DAKOTA

CITY           SKY/WX    TMP DP  RH WIND       PRES   REMARKS
BISMARCK       CLOUDY    44  32  62 CALM      29.82R
DICKINSON      CLOUDY    48  33  56 W10       29.83R
GARRISON         N/A     44  38  79 W8        29.79R
HETTINGER ARPT MOCLDY    45  29  53 NW3       29.88R
$$

NDZ004>008-012>016-024-026-027-054-241000-
NORTHEAST NORTH DAKOTA

CITY           SKY/WX    TMP DP  RH WIND       PRES   REMARKS
GRAND FORKS    CLOUDY    45  37  73 SW5       29.74S
GRND FRKS AFB  CLOUDY    53  37  56 W7        29.75S
DEVILS LAKE    CLOUDY    46  34  61 CALM      29.74S
$$

NDZ022-023-025-028>030-036>039-047>053-241000-
SOUTHEAST NORTH DAKOTA

CITY           SKY/WX    TMP DP  RH WIND       PRES   REMARKS
FARGO          CLOUDY    50  42  74 S9        29.79F
JAMESTOWN      CLOUDY    41  36  82 CALM      29.79S
$$




USA.gov is the U.S. government's official web portal to all federal, state and local government web resources and services.